This is the latest recevied weather packets stored in our database for station/object KE5AKC. If no packets are shown the sender has not sent any weather packets the latest 10 day(s).
| Time | Temp. | Humidity | Pressure | Rain* | Wind** | Luminosity | Snow |
|---|---|---|---|---|---|---|---|
| 1777412799 | 32.22° C | 53% | 1011.3 hPa | 0 mm | - | 544 W/m² | - |
| 1777412499 | 32.22° C | 52% | 1011.3 hPa | 0 mm | - | 554 W/m² | - |
| 1777412196 | 32.22° C | 53% | 1011.3 hPa | 0 mm | - | 574 W/m² | - |
| 1777411893 | 32.22° C | 53% | 1011.7 hPa | 0 mm | - | 572 W/m² | - |
| 1777411592 | 31.67° C | 56% | 1011.3 hPa | 0 mm | - | 619 W/m² | - |
| 1777411287 | 32.22° C | 55% | 1011.3 hPa | 0 mm | - | 641 W/m² | - |
| 1777410986 | 32.22° C | 54% | 1011.7 hPa | 0 mm | - | 656 W/m² | - |
| 1777410680 | 32.22° C | 55% | 1011.7 hPa | 0 mm | - | 645 W/m² | - |
| 1777410375 | 31.67° C | 55% | 1011.7 hPa | 0 mm | - | 695 W/m² | - |
| 1777410074 | 31.67° C | 56% | 1011.7 hPa | 0 mm | - | 696 W/m² | - |
| 1777409769 | 31.67° C | 58% | 1012 hPa | 0 mm | - | 686 W/m² | - |
| 1777409465 | 31.67° C | 60% | 1012.4 hPa | 0 mm | - | 735 W/m² | - |
| 1777409161 | 31.67° C | 59% | 1012 hPa | 0 mm | - | 742 W/m² | - |
| 1777408858 | 31.67° C | 59% | 1012 hPa | 0 mm | - | 762 W/m² | - |
| 1777408554 | 31.67° C | 59% | 1012.4 hPa | 0 mm | - | 792 W/m² | - |
| 1777408254 | 32.22° C | 58% | 1012.4 hPa | 0 mm | - | 803 W/m² | - |
| 1777407949 | 32.22° C | 58% | 1012.4 hPa | 0 mm | - | 780 W/m² | - |
| 1777407647 | 32.22° C | 58% | 1012.7 hPa | 0 mm | - | 760 W/m² | - |
| 1777407346 | 31.67° C | 58% | 1012.7 hPa | 0 mm | - | 762 W/m² | - |
| 1777407042 | 31.67° C | 58% | 1012.7 hPa | 0 mm | - | 842 W/m² | - |
| 1777406737 | 32.22° C | 56% | 1013 hPa | 0 mm | - | 824 W/m² | - |
| 1777406432 | 32.22° C | 56% | 1013 hPa | 0 mm | - | 890 W/m² | - |
| 1777406132 | 32.22° C | 56% | 1013 hPa | 0 mm | - | 890 W/m² | - |
| 1777405828 | 32.22° C | 56% | 1013 hPa | 0 mm | - | 908 W/m² | - |
| 1777405524 | 32.22° C | 56% | 1013 hPa | 0 mm | - | 744 W/m² | - |
* Rain latest hour (hover to see other rain measurements)
** Current wind speed in m/s (hover to see current wind gust speed)